Location: *
(18.5200°S, 46.4500°E)
Time: 10:25:48
(UTC+00:00)

USA 229 - Pass Details

Date: 19 July 2019
Orbit: 1002 x 1210 km, 63.4° (Epoch: 18 August)

Event Time Altitude Azimuth Distance (km) Brightness Sun altitude
Rises 15:00:10 0° 189° (S) 3,833 6.5 -6.4°
Reaches altitude 10° 15:03:18 10° 177° (S) 2,846 5.7 -7.1°
Maximum altitude 15:08:49 27° 121° (ESE) 1,842 4.4 -8.3°
Drops below altitude 10° 15:14:11 10° 65° (ENE) 2,771 5.5 -9.5°
Sets 15:17:11 0° 53° (NE) 3,713 6.2 -10.2°
